Hourly Data Report for May 16, 2021

FISHER BRANCH (AUT)
MANITOBA
Current Station Operator: ECCC - MSC

51°05'00.100" N
97°33'16.200" W
253.00 m
50309J6
71442
WSZ

Download Data

Hourly Data (May 2021)
Hourly Data Report for May 16, 2021
TIME
LST
Temp Definition
°C
Dew Point Definition
°C
Rel Hum Definition
%
Precip. Amount Definition
mm

Wind Dir Definition
10's deg

Wind Spd Definition
km/h
Visibility Definition
km
Stn Press Definition
kPa
Hmdx Definition


Wind Chill Definition


Weather Definition


00:00 7.8 2.3 68 0.0 13 2   98.31     LegendNANA
01:00 7.2 1.6 67 0.0 18 5   98.29     LegendNANA
02:00 8.6 4.3 74 0.0 17 7   98.24     LegendNANA
03:00 5.7 1.2 73 0.0 15 8   98.20     LegendNANA
04:00 9.2 5.1 76 0.0 17 10   98.16     LegendNANA
05:00 9.4 5.6 77 0.0 17 10   98.10     LegendNANA
06:00 12.2 6.0 66 0.0 20 11   98.07     LegendNANA
07:00 14.3 6.0 57 0.0 20 17   98.06     LegendNANA
08:00 17.3 5.8 47 0.0 22 19   98.03     LegendNANA
09:00 19.2 5.0 39 0.0 23 20   98.02     LegendNANA
10:00 21.4 4.5 33 0.0 23 21   97.98     LegendNANA
11:00 22.1 5.0 33 0.0 22 20   97.93     LegendNANA
12:00 23.1 4.9 31 0.0 21 18   97.91     LegendNANA
13:00 25.1 3.1 24 0.0 25 29   97.90     LegendNANA
14:00 25.2 2.8 23 0.0 27 20   97.92     LegendNANA
15:00 25.8 1.8 21 0.0 29 24   97.94     LegendNANA
16:00 25.0 1.9 22 0.0 33 18   97.95     LegendNANA
17:00 19.8 6.7 42 0.0 3 14   98.13     LegendNANA
18:00 19.1 7.5 47 0.0 36 21   98.19     LegendNANA
19:00 17.1 8.1 56 0.0 1 10   98.19     LegendNANA
20:00 15.9 8.0 59 0.0 3 6   98.26     LegendNANA
21:00 14.5 5.9 56 0.0 2 6   98.32     LegendNANA
22:00 12.2 3.0 53 0.0 3 8   98.39     LegendNANA
23:00 11.3 2.7 55 0.0 5 6   98.44     LegendNANA

Notes on Data Quality.

Legend

  • E = Estimated
  • M = Missing
  • NA = Not Available*
  • [empty] = Indicates an unobserved value
Date modified: